This is the latest recevied weather packets stored in our database for station/object CE3TDM-12. If no packets are shown the sender has not sent any weather packets the latest 10 day(s).
| Time | Temp. | Humidity | Pressure | Rain* | Wind** | Luminosity | Snow |
|---|---|---|---|---|---|---|---|
| 1777582325 | 20° C | 34% | 775.1 hPa | - | - | - | - |
| 1777582024 | 19.44° C | 34% | 775 hPa | - | - | - | - |
| 1777581724 | 18.33° C | 36% | 775 hPa | - | - | - | - |
| 1777581423 | 18.33° C | 36% | 774.9 hPa | - | - | - | - |
| 1777581123 | 18.89° C | 35% | 775.1 hPa | - | - | - | - |
| 1777580822 | 18.89° C | 35% | 774.8 hPa | - | - | - | - |
| 1777580522 | 19.44° C | 35% | 774.7 hPa | - | - | - | - |
| 1777580221 | 19.44° C | 35% | 775 hPa | - | - | - | - |
| 1777579875 | 20.56° C | 34% | 774.8 hPa | - | - | - | - |
| 1777579575 | 21.11° C | 34% | 774.9 hPa | - | - | - | - |
| 1777579274 | 22.22° C | 33% | 774.7 hPa | - | - | - | - |
| 1777578974 | 22.22° C | 33% | 774.8 hPa | - | - | - | - |
| 1777578673 | 22.22° C | 33% | 774.7 hPa | - | - | - | - |
| 1777578373 | 22.22° C | 33% | 774.9 hPa | - | - | - | - |
| 1777578072 | 21.11° C | 33% | 774.9 hPa | - | - | - | - |
| 1777577772 | 20° C | 34% | 774.9 hPa | - | - | - | - |
| 1777577471 | 19.44° C | 35% | 774.9 hPa | - | - | - | - |
| 1777577171 | 19.44° C | 35% | 774.9 hPa | - | - | - | - |
| 1777576870 | 20° C | 35% | 774.9 hPa | - | - | - | - |
| 1777576569 | 20° C | 35% | 774.8 hPa | - | - | - | - |
| 1777576269 | 20.56° C | 35% | 774.9 hPa | - | - | - | - |
| 1777575968 | 21.11° C | 35% | 774.9 hPa | - | - | - | - |
| 1777575668 | 21.11° C | 35% | 774.8 hPa | - | - | - | - |
| 1777575365 | 22.22° C | 35% | 774.7 hPa | - | - | - | - |
| 1777575065 | 23.89° C | 33% | 774.7 hPa | - | - | - | - |
* Rain since midnight (hover to see other rain measurements)
** Current wind speed in m/s (hover to see current wind gust speed)